Hourly Weather Alibaevo

Today, 27 February, Saturday

Time Temperature Precipitation Wind Pressure Humidity
00:00 -24°C° 0 mm 3 mps 736 mmHg 95%
01:00 -24°C° 0 mm 3 mps 736 mmHg 95%
02:00 -24°C° 0 mm 4 mps 735 mmHg 95%
03:00 -24°C° 0 mm 4 mps 734 mmHg 95%
04:00 -23°C° 0 mm 4 mps 734 mmHg 95%
05:00 -24°C° 0.3 mm 5 mps 733 mmHg 95%
06:00 -23°C° 0.3 mm 6 mps 731 mmHg 95%
07:00 -23°C° 0.3 mm 7 mps 730 mmHg 95%
08:00 -20°C° 1.1 mm 7 mps 730 mmHg 95%
09:00 -19°C° 1.1 mm 7 mps 729 mmHg 94%
10:00 -17°C° 1.1 mm 7 mps 729 mmHg 93%
11:00 -14°C° 0.4 mm 7 mps 728 mmHg 93%
12:00 -13°C° 0.4 mm 7 mps 727 mmHg 93%
13:00 -11°C° 0.4 mm 7 mps 726 mmHg 94%
14:00 -9°C° 0.4 mm 6 mps 726 mmHg 94%
15:00 -9°C° 0.4 mm 6 mps 726 mmHg 95%
16:00 -7°C° 0.4 mm 5 mps 725 mmHg 95%
17:00 -5°C° 0.2 mm 4 mps 725 mmHg 96%
18:00 -5°C° 0.2 mm 4 mps 725 mmHg 96%
19:00 -4°C° 0.2 mm 3 mps 725 mmHg 97%
20:00 -4°C° 0.1 mm 3 mps 725 mmHg 97%
21:00 -4°C° 0.1 mm 3 mps 725 mmHg 97%
22:00 -3°C° 0.1 mm 4 mps 725 mmHg 97%
23:00 -3°C° 0.2 mm 4 mps 724 mmHg 97%

Tomorrow, 28 February, Sunday

Time Temperature Precipitation Wind Pressure Humidity
00:00 -3°C° 0.2 mm 4 mps 724 mmHg 97%
01:00 -3°C° 0.2 mm 4 mps 724 mmHg 98%
02:00 -3°C° 0.3 mm 4 mps 723 mmHg 97%
03:00 -3°C° 0.3 mm 4 mps 723 mmHg 96%
04:00 -4°C° 0.3 mm 4 mps 723 mmHg 96%
05:00 -4°C° 0.3 mm 4 mps 723 mmHg 96%
06:00 -4°C° 0.3 mm 4 mps 723 mmHg 97%
07:00 -4°C° 0.3 mm 3 mps 723 mmHg 97%
08:00 -4°C° 0.5 mm 4 mps 723 mmHg 97%
09:00 -5°C° 0.5 mm 5 mps 723 mmHg 97%
10:00 -4°C° 0.5 mm 5 mps 723 mmHg 97%
11:00 -4°C° 0.4 mm 5 mps 723 mmHg 96%
12:00 -4°C° 0.4 mm 5 mps 723 mmHg 96%
13:00 -4°C° 0.4 mm 5 mps 724 mmHg 95%
14:00 -5°C° 0.2 mm 5 mps 724 mmHg 95%
15:00 -7°C° 0.2 mm 5 mps 724 mmHg 95%
16:00 -8°C° 0.2 mm 5 mps 725 mmHg 95%
17:00 -10°C° 0.1 mm 4 mps 726 mmHg 95%
18:00 -11°C° 0.1 mm 4 mps 726 mmHg 96%
19:00 -13°C° 0.1 mm 3 mps 727 mmHg 96%
20:00 -13°C° 0.1 mm 3 mps 728 mmHg 96%
21:00 -14°C° 0.1 mm 3 mps 728 mmHg 96%
22:00 -15°C° 0.1 mm 3 mps 729 mmHg 97%
23:00 -14°C° 0 mm 2 mps 729 mmHg 97%

Day after tomorrow, 1 March, Monday

Time Temperature Precipitation Wind Pressure Humidity
00:00 -15°C° 0 mm 2 mps 730 mmHg 97%
01:00 -15°C° 0 mm 2 mps 730 mmHg 97%
02:00 -16°C° 0 mm 2 mps 730 mmHg 97%
03:00 -16°C° 0 mm 2 mps 731 mmHg 97%
04:00 -14°C° 0 mm 1 mps 731 mmHg 97%
05:00 -15°C° 0.1 mm 1 mps 731 mmHg 97%
06:00 -15°C° 0.1 mm 1 mps 732 mmHg 97%
07:00 -15°C° 0.1 mm 1 mps 732 mmHg 97%
08:00 -17°C° 0 mm 2 mps 733 mmHg 95%
09:00 -16°C° 0 mm 2 mps 733 mmHg 94%
10:00 -15°C° 0 mm 2 mps 734 mmHg 92%
11:00 -15°C° 0 mm 2 mps 734 mmHg 92%
12:00 -14°C° 0 mm 2 mps 734 mmHg 91%
13:00 -15°C° 0 mm 3 mps 734 mmHg 91%
14:00 -15°C° 0 mm 3 mps 734 mmHg 91%
15:00 -15°C° 0 mm 3 mps 735 mmHg 92%
16:00 -15°C° 0 mm 3 mps 735 mmHg 93%
17:00 -16°C° 0 mm 3 mps 735 mmHg 94%
18:00 -16°C° 0 mm 2 mps 735 mmHg 96%
19:00 -17°C° 0 mm 2 mps 735 mmHg 97%
20:00 -17°C° 0 mm 2 mps 736 mmHg 98%
21:00 -16°C° 0 mm 1 mps 736 mmHg 98%
22:00 -16°C° 0 mm 1 mps 736 mmHg 98%
23:00 -17°C° 0 mm 1 mps 736 mmHg 98%

2 March, Tuesday

Time Temperature Precipitation Wind Pressure Humidity
00:00 -17°C° 0 mm 1 mps 736 mmHg 98%
01:00 -18°C° 0 mm 1 mps 736 mmHg 99%
02:00 -18°C° 0 mm 1 mps 736 mmHg 99%
03:00 -19°C° 0 mm 1 mps 736 mmHg 99%
04:00 -20°C° 0 mm 1 mps 736 mmHg 99%
05:00 -21°C° 0 mm 1 mps 736 mmHg 99%
06:00 -21°C° 0 mm 1 mps 736 mmHg 99%
07:00 -22°C° 0 mm 1 mps 736 mmHg 99%
08:00 -21°C° 0 mm 1 mps 736 mmHg 99%
09:00 -23°C° 0 mm 2 mps 736 mmHg 98%
10:00 -21°C° 0 mm 2 mps 736 mmHg 97%
11:00 -20°C° 0 mm 2 mps 736 mmHg 96%
12:00 -20°C° 0 mm 2 mps 736 mmHg 95%
13:00 -21°C° 0 mm 3 mps 736 mmHg 94%
14:00 -21°C° 0 mm 3 mps 735 mmHg 95%
15:00 -21°C° 0 mm 3 mps 735 mmHg 96%
16:00 -21°C° 0 mm 3 mps 735 mmHg 96%
17:00 -23°C° 0 mm 3 mps 734 mmHg 97%
18:00 -23°C° 0 mm 2 mps 734 mmHg 98%
19:00 -25°C° 0 mm 2 mps 734 mmHg 99%
20:00 -24°C° 0 mm 2 mps 734 mmHg 99%
21:00 -24°C° 0 mm 3 mps 733 mmHg 98%
22:00 -23°C° 0 mm 3 mps 733 mmHg 98%
23:00 -23°C° 0.1 mm 3 mps 733 mmHg 97%

3 March, Wednesday

Time Temperature Precipitation Wind Pressure Humidity
00:00 -22°C° 0.1 mm 3 mps 732 mmHg 97%
01:00 -21°C° 0.1 mm 3 mps 731 mmHg 96%
02:00 -19°C° 0.2 mm 3 mps 731 mmHg 96%
03:00 -18°C° 0.2 mm 3 mps 730 mmHg 96%
04:00 -16°C° 0.2 mm 3 mps 729 mmHg 95%
05:00 -14°C° 0.5 mm 3 mps 729 mmHg 95%
06:00 -12°C° 0.5 mm 4 mps 729 mmHg 95%
07:00 -11°C° 0.5 mm 4 mps 728 mmHg 95%
08:00 -10°C° 0.7 mm 5 mps 728 mmHg 95%
09:00 -9°C° 0.7 mm 6 mps 728 mmHg 95%
10:00 -8°C° 0.7 mm 7 mps 727 mmHg 95%
11:00 -7°C° 0.6 mm 7 mps 727 mmHg 95%
12:00 -7°C° 0.6 mm 7 mps 727 mmHg 95%
13:00 -7°C° 0.6 mm 7 mps 726 mmHg 95%
14:00 -6°C° 0.6 mm 7 mps 726 mmHg 96%
15:00 -5°C° 0.6 mm 6 mps 726 mmHg 96%
16:00 -4°C° 0.6 mm 6 mps 725 mmHg 96%
17:00 -5°C° 0.5 mm 6 mps 725 mmHg 96%
18:00 -5°C° 0.5 mm 5 mps 725 mmHg 97%
19:00 -5°C° 0.5 mm 5 mps 724 mmHg 97%
20:00 -5°C° 0.5 mm 5 mps 725 mmHg 96%
21:00 -6°C° 0.5 mm 5 mps 725 mmHg 96%
22:00 -6°C° 0.5 mm 5 mps 725 mmHg 96%
23:00 -7°C° 0.3 mm 5 mps 725 mmHg 96%

4 March, Thursday

Time Temperature Precipitation Wind Pressure Humidity
00:00 -8°C° 0.3 mm 5 mps 725 mmHg 95%
01:00 -10°C° 0.3 mm 5 mps 725 mmHg 95%
02:00 -11°C° 0.2 mm 5 mps 725 mmHg 95%
03:00 -13°C° 0.2 mm 5 mps 726 mmHg 95%
04:00 -14°C° 0.2 mm 5 mps 726 mmHg 95%
05:00 -14°C° 0.2 mm 5 mps 726 mmHg 95%
06:00 -14°C° 0.2 mm 5 mps 727 mmHg 95%
07:00 -14°C° 0.2 mm 5 mps 727 mmHg 95%
08:00 -14°C° 0.1 mm 5 mps 727 mmHg 94%
09:00 -13°C° 0.1 mm 5 mps 728 mmHg 94%
10:00 -14°C° 0.1 mm 6 mps 728 mmHg 93%
11:00 -14°C° 0 mm 6 mps 729 mmHg 93%
12:00 -12°C° 0 mm 5 mps 729 mmHg 93%
13:00 -11°C° 0 mm 5 mps 729 mmHg 93%
14:00 -11°C° 0.1 mm 5 mps 730 mmHg 93%
15:00 -11°C° 0.1 mm 5 mps 730 mmHg 92%
16:00 -11°C° 0.1 mm 5 mps 731 mmHg 92%
17:00 -12°C° 0 mm 4 mps 731 mmHg 94%
18:00 -14°C° 0 mm 3 mps 731 mmHg 95%
19:00 -15°C° 0 mm 2 mps 732 mmHg 97%
20:00 -16°C° 0 mm 2 mps 732 mmHg 98%
21:00 -16°C° 0 mm 2 mps 733 mmHg 98%
22:00 -15°C° 0 mm 1 mps 733 mmHg 99%
23:00 -17°C° 0.1 mm 2 mps 733 mmHg 98%
Show more